Time,TemperatureF,DewpointF,PressureIn,WindDirection,WindDirectionDegrees,WindSpeedMPH,WindSpeedGustMPH,Humidity,HourlyPrecipIn,Conditions,Clouds,dailyrainin,SoftwareType,DateUTC
2013-05-17 00:13:00,76.3,72.0,29.61,SE,140,1.0,-999.0,85,-99.99,,,0.00,weatherlink.com 1.10,2013-05-17 05:13:00,
2013-05-17 00:28:00,75.9,72.0,29.61,ESE,123,2.0,-999.0,86,-99.99,,,0.00,weatherlink.com 1.10,2013-05-17 05:28:00,
2013-05-17 00:43:00,75.4,71.0,29.61,East,92,0.0,-999.0,87,-99.99,,,0.00,weatherlink.com 1.10,2013-05-17 05:43:00,
2013-05-17 00:58:00,75.2,72.0,29.61,ESE,111,0.0,-999.0,88,-99.99,,,0.00,weatherlink.com 1.10,2013-05-17 05:58:00,
2013-05-17 01:13:00,75.0,71.0,29.61,ESE,106,5.0,-999.0,88,-99.99,,,0.00,weatherlink.com 1.10,2013-05-17 06:13:00,
2013-05-17 01:28:00,74.9,71.0,29.61,ESE,119,2.0,-999.0,88,-99.99,,,0.00,weatherlink.com 1.10,2013-05-17 06:28:00,
2013-05-17 01:43:00,74.7,71.0,29.61,East,101,2.0,-999.0,88,-99.99,,,0.00,weatherlink.com 1.10,2013-05-17 06:43:00,
2013-05-17 01:58:00,74.5,71.0,29.61,ESE,107,3.0,-999.0,89,-99.99,,,0.00,weatherlink.com 1.10,2013-05-17 06:58:00,
2013-05-17 02:13:00,74.2,71.0,29.61,SSE,167,1.0,-999.0,89,-99.99,,,0.00,weatherlink.com 1.10,2013-05-17 07:13:00,
2013-05-17 02:28:00,74.0,71.0,29.61,ESE,122,2.0,-999.0,89,-99.99,,,0.00,weatherlink.com 1.10,2013-05-17 07:28:00,
2013-05-17 02:43:00,74.0,71.0,29.61,South,169,2.0,-999.0,89,-99.99,,,0.00,weatherlink.com 1.10,2013-05-17 07:43:00,
2013-05-17 02:58:00,74.0,71.0,29.61,SSE,162,6.0,-999.0,89,-99.99,,,0.00,weatherlink.com 1.10,2013-05-17 07:58:00,
2013-05-17 03:13:00,74.0,71.0,29.61,South,170,1.0,-999.0,89,-99.99,,,0.00,weatherlink.com 1.10,2013-05-17 08:13:00,
2013-05-17 03:28:00,74.0,71.0,29.61,South,188,0.0,-999.0,90,-99.99,,,0.00,weatherlink.com 1.10,2013-05-17 08:28:00,
2013-05-17 03:43:00,74.0,71.0,29.60,South,182,4.0,-999.0,90,-99.99,,,0.00,weatherlink.com 1.10,2013-05-17 08:43:00,
2013-05-17 04:01:00,73.9,71.0,29.61,SE,141,2.0,-999.0,90,-99.99,,,0.00,weatherlink.com 1.10,2013-05-17 09:01:00,
2013-05-17 04:13:00,73.8,71.0,29.61,South,171,1.0,-999.0,90,-99.99,,,0.00,weatherlink.com 1.10,2013-05-17 09:13:00,
2013-05-17 04:28:00,73.8,71.0,29.61,ESE,119,1.0,-999.0,90,-99.99,,,0.00,weatherlink.com 1.10,2013-05-17 09:28:00,
2013-05-17 04:43:00,73.7,71.0,29.61,SSW,199,1.0,-999.0,91,-99.99,,,0.00,weatherlink.com 1.10,2013-05-17 09:43:00,
2013-05-17 04:58:00,73.5,71.0,29.61,South,184,2.0,-999.0,91,-99.99,,,0.00,weatherlink.com 1.10,2013-05-17 09:58:00,
2013-05-17 05:13:00,73.5,71.0,29.61,SSE,163,1.0,-999.0,91,-99.99,,,0.00,weatherlink.com 1.10,2013-05-17 10:13:00,
2013-05-17 05:28:00,73.4,71.0,29.61,SE,145,0.0,-999.0,91,-99.99,,,0.00,weatherlink.com 1.10,2013-05-17 10:28:00,
2013-05-17 05:43:00,73.3,71.0,29.61,South,189,1.0,-999.0,91,-99.99,,,0.00,weatherlink.com 1.10,2013-05-17 10:43:00,
2013-05-17 05:58:00,73.2,71.0,29.61,ESE,123,1.0,-999.0,91,-99.99,,,0.00,weatherlink.com 1.10,2013-05-17 10:58:00,
2013-05-17 06:13:00,73.1,70.0,29.61,SSE,159,1.0,-999.0,91,-99.99,,,0.00,weatherlink.com 1.10,2013-05-17 11:13:00,
2013-05-17 06:28:00,73.1,70.0,29.62,ESE,111,2.0,-999.0,91,-99.99,,,0.00,weatherlink.com 1.10,2013-05-17 11:28:00,
2013-05-17 06:43:00,73.2,71.0,29.63,SE,125,0.0,-999.0,91,-99.99,,,0.00,weatherlink.com 1.10,2013-05-17 11:43:00,
2013-05-17 06:58:00,73.3,71.0,29.63,SE,126,0.0,-999.0,91,-99.99,,,0.00,weatherlink.com 1.10,2013-05-17 11:58:00,
2013-05-17 07:13:00,73.5,71.0,29.64,ENE,75,1.0,-999.0,92,-99.99,,,0.00,weatherlink.com 1.10,2013-05-17 12:13:00,
2013-05-17 07:28:00,73.5,71.0,29.65,ESE,107,3.0,-999.0,92,-99.99,,,0.00,weatherlink.com 1.10,2013-05-17 12:28:00,
2013-05-17 07:43:00,73.8,71.0,29.66,ESE,122,1.0,-999.0,91,-99.99,,,0.00,weatherlink.com 1.10,2013-05-17 12:43:00,
2013-05-17 07:58:00,73.9,71.0,29.66,ESE,112,2.0,-999.0,91,-99.99,,,0.00,weatherlink.com 1.10,2013-05-17 12:58:00,
2013-05-17 08:13:00,74.2,72.0,29.65,ESE,111,2.0,-999.0,91,-99.99,,,0.00,weatherlink.com 1.10,2013-05-17 13:13:00,
2013-05-17 08:28:00,74.5,72.0,29.65,ESE,119,5.0,-999.0,91,-99.99,,,0.00,weatherlink.com 1.10,2013-05-17 13:28:00,
2013-05-17 08:43:00,74.9,72.0,29.65,ENE,75,3.0,-999.0,91,-99.99,,,0.00,weatherlink.com 1.10,2013-05-17 13:43:00,
2013-05-17 08:58:00,75.2,73.0,29.65,ESE,114,5.0,-999.0,91,-99.99,,,0.00,weatherlink.com 1.10,2013-05-17 13:58:00,
2013-05-17 09:14:00,75.5,73.0,29.66,SE,126,5.0,-999.0,90,-99.99,,,0.00,weatherlink.com 1.10,2013-05-17 14:14:00,
2013-05-17 09:29:00,76.3,73.0,29.65,SE,129,2.0,-999.0,89,-99.99,,,0.00,weatherlink.com 1.10,2013-05-17 14:29:00,
2013-05-17 09:44:00,77.4,73.0,29.65,SSW,196,9.0,-999.0,85,-99.99,,,0.00,weatherlink.com 1.10,2013-05-17 14:44:00,
2013-05-17 09:59:00,78.4,73.0,29.64,SSW,205,1.0,-999.0,82,-99.99,,,0.00,weatherlink.com 1.10,2013-05-17 14:59:00,
2013-05-17 10:15:00,78.9,72.0,29.64,SSE,168,4.0,-999.0,79,-99.99,,,0.00,weatherlink.com 1.10,2013-05-17 15:15:00,
2013-05-17 10:29:00,80.4,73.0,29.64,South,188,2.0,-999.0,77,-99.99,,,0.00,weatherlink.com 1.10,2013-05-17 15:29:00,
2013-05-17 10:44:00,80.0,72.0,29.64,SSW,211,9.0,-999.0,77,-99.99,,,0.00,weatherlink.com 1.10,2013-05-17 15:44:00,
2013-05-17 10:59:00,78.7,72.0,29.65,SW,215,4.0,-999.0,79,-99.99,,,0.00,weatherlink.com 1.10,2013-05-17 15:59:00,
2013-05-17 11:14:00,79.5,73.0,29.65,SSW,210,6.0,-999.0,79,-99.99,,,0.00,weatherlink.com 1.10,2013-05-17 16:14:00,
2013-05-17 11:29:00,79.8,72.0,29.65,SSW,208,3.0,-999.0,78,-99.99,,,0.00,weatherlink.com 1.10,2013-05-17 16:29:00,
2013-05-17 11:44:00,80.3,73.0,29.65,SSE,168,3.0,-999.0,77,-99.99,,,0.00,weatherlink.com 1.10,2013-05-17 16:44:00,
2013-05-17 11:59:00,81.2,73.0,29.65,WSW,242,2.0,-999.0,76,-99.99,,,0.00,weatherlink.com 1.10,2013-05-17 16:59:00,
2013-05-17 12:14:00,82.3,74.0,29.65,SSW,213,2.0,-999.0,75,-99.99,,,0.00,weatherlink.com 1.10,2013-05-17 17:14:00,
2013-05-17 12:29:00,82.3,73.0,29.65,SE,136,2.0,-999.0,74,-99.99,,,0.00,weatherlink.com 1.10,2013-05-17 17:29:00,
2013-05-17 12:44:00,83.5,73.0,29.65,SSE,163,4.0,-999.0,71,-99.99,,,0.00,weatherlink.com 1.10,2013-05-17 17:44:00,
2013-05-17 12:59:00,83.9,73.0,29.64,SE,146,1.0,-999.0,70,-99.99,,,0.00,weatherlink.com 1.10,2013-05-17 17:59:00,
2013-05-17 13:14:00,84.6,73.0,29.64,SE,146,6.0,-999.0,68,-99.99,,,0.00,weatherlink.com 1.10,2013-05-17 18:14:00,
2013-05-17 13:29:00,84.6,73.0,29.64,South,171,2.0,-999.0,69,-99.99,,,0.00,weatherlink.com 1.10,2013-05-17 18:29:00,
2013-05-17 13:44:00,86.0,73.0,29.64,SSE,167,1.0,-999.0,66,-99.99,,,0.00,weatherlink.com 1.10,2013-05-17 18:44:00,
2013-05-17 13:59:00,86.5,74.0,29.64,South,170,3.0,-999.0,67,-99.99,,,0.00,weatherlink.com 1.10,2013-05-17 18:59:00,
2013-05-17 14:14:00,87.6,74.0,29.63,South,174,3.0,-999.0,65,-99.99,,,0.00,weatherlink.com 1.10,2013-05-17 19:14:00,
2013-05-17 14:29:00,87.7,75.0,29.63,SSW,192,2.0,-999.0,65,-99.99,,,0.00,weatherlink.com 1.10,2013-05-17 19:29:00,
2013-05-17 14:44:00,88.2,74.0,29.62,SSW,195,4.0,-999.0,63,-99.99,,,0.00,weatherlink.com 1.10,2013-05-17 19:44:00,
2013-05-17 14:59:00,88.0,74.0,29.62,ESE,122,2.0,-999.0,63,-99.99,,,0.00,weatherlink.com 1.10,2013-05-17 19:59:00,
2013-05-17 15:14:00,88.0,74.0,29.62,SW,234,2.0,-999.0,64,-99.99,,,0.00,weatherlink.com 1.10,2013-05-17 20:14:00,
2013-05-17 15:29:00,89.6,75.0,29.62,WSW,238,1.0,-999.0,62,-99.99,,,0.00,weatherlink.com 1.10,2013-05-17 20:29:00,
2013-05-17 15:44:00,88.6,73.0,29.61,ESE,120,4.0,-999.0,61,-99.99,,,0.00,weatherlink.com 1.10,2013-05-17 20:44:00,
2013-05-17 15:59:00,88.9,74.0,29.61,South,184,3.0,-999.0,62,-99.99,,,0.00,weatherlink.com 1.10,2013-05-17 20:59:00,
2013-05-17 16:14:00,88.2,74.0,29.61,SSE,156,3.0,-999.0,62,-99.99,,,0.00,weatherlink.com 1.10,2013-05-17 21:14:00,
2013-05-17 16:29:00,88.3,74.0,29.60,SSE,153,7.0,-999.0,62,-99.99,,,0.00,weatherlink.com 1.10,2013-05-17 21:29:00,
2013-05-17 16:44:00,89.0,75.0,29.60,SSE,156,5.0,-999.0,63,-99.99,,,0.00,weatherlink.com 1.10,2013-05-17 21:44:00,
2013-05-17 16:59:00,88.4,74.0,29.59,SE,130,1.0,-999.0,62,-99.99,,,0.00,weatherlink.com 1.10,2013-05-17 21:59:00,
2013-05-17 17:14:00,88.6,74.0,29.59,ESE,113,2.0,-999.0,62,-99.99,,,0.00,weatherlink.com 1.10,2013-05-17 22:14:00,
2013-05-17 17:30:00,87.9,74.0,29.59,South,181,2.0,-999.0,63,-99.99,,,0.00,weatherlink.com 1.10,2013-05-17 22:30:00,
2013-05-17 17:44:00,87.5,73.0,29.59,SE,134,2.0,-999.0,63,-99.99,,,0.00,weatherlink.com 1.10,2013-05-17 22:44:00,
2013-05-17 17:59:00,87.5,73.0,29.59,SE,128,3.0,-999.0,63,-99.99,,,0.00,weatherlink.com 1.10,2013-05-17 22:59:00,
2013-05-17 18:14:00,87.0,73.0,29.59,South,185,0.0,-999.0,64,-99.99,,,0.00,weatherlink.com 1.10,2013-05-17 23:14:00,
2013-05-17 18:29:00,86.6,74.0,29.59,ESE,121,2.0,-999.0,66,-99.99,,,0.00,weatherlink.com 1.10,2013-05-17 23:29:00,
2013-05-17 18:44:00,86.5,74.0,29.59,South,179,3.0,-999.0,66,-99.99,,,0.00,weatherlink.com 1.10,2013-05-17 23:44:00,
2013-05-17 18:59:00,86.2,74.0,29.60,SSW,195,0.0,-999.0,67,-99.99,,,0.00,weatherlink.com 1.10,2013-05-17 23:59:00,
2013-05-17 19:14:00,86.0,74.0,29.60,South,175,2.0,-999.0,67,-99.99,,,0.00,weatherlink.com 1.10,2013-05-18 00:14:00,
2013-05-17 19:29:00,85.9,74.0,29.61,East,92,1.0,-999.0,67,-99.99,,,0.00,weatherlink.com 1.10,2013-05-18 00:29:00,
2013-05-17 19:44:00,85.8,74.0,29.61,NW,319,0.0,-999.0,67,-99.99,,,0.00,weatherlink.com 1.10,2013-05-18 00:44:00,
2013-05-17 19:59:00,85.7,74.0,29.64,SW,230,0.0,-999.0,67,-99.99,,,0.00,weatherlink.com 1.10,2013-05-18 00:59:00,
2013-05-17 20:14:00,85.6,74.0,29.64,SSE,161,2.0,-999.0,68,-99.99,,,0.00,weatherlink.com 1.10,2013-05-18 01:14:00,
2013-05-17 20:29:00,85.5,74.0,29.62,SSW,195,4.0,-999.0,68,-99.99,,,0.00,weatherlink.com 1.10,2013-05-18 01:29:00,
2013-05-17 20:44:00,85.4,74.0,29.63,SE,126,4.0,-999.0,69,-99.99,,,0.00,weatherlink.com 1.10,2013-05-18 01:44:00,
2013-05-17 20:59:00,85.2,74.0,29.64,SSE,161,4.0,-999.0,69,-99.99,,,0.00,weatherlink.com 1.10,2013-05-18 01:59:00,
2013-05-17 21:14:00,84.6,74.0,29.65,SW,223,2.0,-999.0,70,-99.99,,,0.00,weatherlink.com 1.10,2013-05-18 02:14:00,
2013-05-17 21:29:00,84.5,74.0,29.62,SSE,166,2.0,-999.0,71,-99.99,,,0.00,weatherlink.com 1.10,2013-05-18 02:29:00,
2013-05-17 21:44:00,84.8,74.0,29.64,SE,140,3.0,-999.0,70,-99.99,,,0.00,weatherlink.com 1.10,2013-05-18 02:44:00,
2013-05-17 21:59:00,84.6,74.0,29.64,SE,141,6.0,-999.0,71,-99.99,,,0.00,weatherlink.com 1.10,2013-05-18 02:59:00,
2013-05-17 22:14:00,84.3,74.0,29.62,SE,145,2.0,-999.0,71,-99.99,,,0.00,weatherlink.com 1.10,2013-05-18 03:14:00,
2013-05-17 22:29:00,84.1,74.0,29.59,SSW,210,12.0,-999.0,72,-99.99,,,0.00,weatherlink.com 1.10,2013-05-18 03:29:00,
2013-05-17 22:44:00,83.9,74.0,29.58,South,184,2.0,-999.0,73,-99.99,,,0.00,weatherlink.com 1.10,2013-05-18 03:44:00,
2013-05-17 22:59:00,83.9,74.0,29.59,ESE,113,5.0,-999.0,73,-99.99,,,0.00,weatherlink.com 1.10,2013-05-18 03:59:00,
2013-05-17 23:14:00,83.6,75.0,29.61,SSW,207,6.0,-999.0,74,-99.99,,,0.00,weatherlink.com 1.10,2013-05-18 04:14:00,
2013-05-17 23:29:00,83.4,74.0,29.61,SSW,202,9.0,-999.0,74,-99.99,,,0.00,weatherlink.com 1.10,2013-05-18 04:29:00,
2013-05-17 23:44:00,83.2,75.0,29.63,South,187,2.0,-999.0,75,-99.99,,,0.00,weatherlink.com 1.10,2013-05-18 04:44:00,
2013-05-17 23:59:00,82.7,74.0,29.64,South,172,2.0,-999.0,76,-99.99,,,0.00,weatherlink.com 1.10,2013-05-18 04:59:00,